| time (UTC) | temp F | wind direction | speed MPH | gust MPH | rain 1hr in | rain 24hr in | rain mn in | humidity % | barometer mb |
| 20260504130512 | 57 | 264 | 4.0 | 13.0 | 0.00 | 0.00 | 0.00 | 58 | 993.5 |
| 20260504110508 | 57 | 215 | 8.0 | 25.0 | 0.00 | 0.00 | 0.00 | 45 | 992.3 |
| 20260504100514 | 57 | 223 | 4.0 | 16.0 | 0.00 | 0.00 | 0.00 | 48 | 993.7 |
| 20260504081529 | 57 | 217 | 8.0 | 18.0 | 0.00 | 0.00 | 0.00 | 50 | 995.9 |
| 20260504081013 | 57 | 212 | 8.0 | 18.0 | 0.00 | 0.00 | 0.00 | 49 | 996.0 |
| 20260504080511 | 57 | 176 | 8.0 | 17.0 | 0.00 | 0.00 | 0.00 | 53 | 996.2 |
| 20260504050510 | 55 | 202 | 3.0 | 8.0 | 0.00 | 0.00 | 0.00 | 50 | 1000.1 |
| 20260504045509 | 55 | 198 | 3.0 | 8.0 | 0.00 | 0.00 | 0.00 | 53 | 1000.5 |
| 20260504045013 | 55 | 203 | 2.0 | 8.0 | 0.00 | 0.00 | 0.00 | 50 | 1000.6 |
| 20260504044531 | 55 | 198 | 2.0 | 7.0 | 0.00 | 0.00 | 0.00 | 50 | 1000.7 |
| 20260504044010 | 55 | 225 | 3.0 | 10.0 | 0.00 | 0.00 | 0.00 | 49 | 1000.8 |
| 20260504043510 | 55 | 192 | 3.0 | 10.0 | 0.00 | 0.00 | 0.00 | 50 | 1000.9 |
| 20260504043043 | 55 | 196 | 3.0 | 10.0 | 0.00 | 0.00 | 0.00 | 51 | 1000.9 |
| 20260504042510 | 55 | 216 | 2.0 | 6.0 | 0.00 | 0.00 | 0.00 | 49 | 1001.1 |
| 20260504042013 | 55 | 224 | 3.0 | 6.0 | 0.00 | 0.00 | 0.00 | 50 | 1001.1 |
| 20260504041536 | 55 | 223 | 2.0 | 7.0 | 0.00 | 0.00 | 0.00 | 48 | 1001.2 |
| 20260504041009 | 55 | 219 | 3.0 | 7.0 | 0.00 | 0.00 | 0.00 | 50 | 1001.3 |
| 20260504040512 | 55 | 222 | 2.0 | 6.0 | 0.00 | 0.00 | 0.00 | 48 | 1001.4 |
| 20260504040032 | 56 | 213 | 2.0 | 7.0 | 0.00 | 0.00 | 0.00 | 48 | 1001.4 |
| 20260504035511 | 56 | 223 | 2.0 | 7.0 | 0.00 | 0.00 | 0.00 | 49 | 1001.6 |
| 20260504035014 | 55 | 202 | 2.0 | 8.0 | 0.00 | 0.00 | 0.00 | 50 | 1001.6 |
| 20260504034534 | 55 | 198 | 3.0 | 8.0 | 0.00 | 0.00 | 0.00 | 52 | 1001.7 |
| 20260504034013 | 55 | 196 | 2.0 | 6.0 | 0.00 | 0.00 | 0.00 | 52 | 1001.8 |
| 20260504033513 | 54 | 200 | 2.0 | 6.0 | 0.00 | 0.00 | 0.00 | 52 | 1002.0 |
| 20260504033034 | 54 | 269 | 1.0 | 4.0 | 0.00 | 0.00 | 0.00 | 56 | 1002.1 |
| 20260504032510 | 53 | 269 | 1.0 | 4.0 | 0.00 | 0.00 | 0.00 | 54 | 1002.2 |
| 20260504032015 | 53 | 269 | 1.0 | 3.0 | 0.00 | 0.00 | 0.00 | 54 | 1002.2 |
| 20260504031530 | 53 | 269 | 2.0 | 4.0 | 0.00 | 0.00 | 0.00 | 52 | 1002.4 |
| 20260504031018 | 52 | 269 | 1.0 | 4.0 | 0.00 | 0.00 | 0.00 | 52 | 1002.5 |
| 20260504030514 | 52 | 269 | 2.0 | 3.0 | 0.00 | 0.00 | 0.00 | 55 | 1002.6 |
| 20260504030034 | 52 | 269 | 1.0 | 3.0 | 0.00 | 0.00 | 0.00 | 60 | 1002.7 |
| 20260504025514 | 52 | 269 | 1.0 | 2.0 | 0.00 | 0.00 | 0.00 | 58 | 1002.8 |
| 20260504025011 | 52 | 0 | 0.0 | 2.0 | 0.00 | 0.00 | 0.00 | 55 | 1002.8 |
| 20260504024535 | 52 | 269 | 0.0 | 2.0 | 0.00 | 0.00 | 0.00 | 57 | 1002.8 |
| 20260504024011 | 52 | 0 | 0.0 | 1.0 | 0.00 | 0.00 | 0.00 | 53 | 1002.8 |
| 20260504023511 | 52 | 0 | 0.0 | 2.0 | 0.00 | 0.00 | 0.00 | 51 | 1003.0 |
| 20260504023030 | 53 | 0 | 0.0 | 2.0 | 0.00 | 0.00 | 0.00 | 50 | 1003.0 |
| 20260504022511 | 53 | 269 | 0.0 | 2.0 | 0.00 | 0.00 | 0.00 | 56 | 1003.0 |
| 20260504022013 | 53 | 0 | 0.0 | 0.0 | 0.00 | 0.00 | 0.00 | 54 | 1003.0 |
| 20260504021533 | 54 | 0 | 0.0 | 0.0 | 0.00 | 0.00 | 0.00 | 65 | 1003.1 |
| 20260504021011 | 54 | 0 | 0.0 | 0.0 | 0.00 | 0.00 | 0.00 | 47 | 1003.1 |
| 20260504020511 | 54 | 0 | 0.0 | 0.0 | 0.00 | 0.00 | 0.00 | 45 | 1003.1 |
| 20260504020031 | 55 | 0 | 0.0 | 0.0 | 0.00 | 0.00 | 0.00 | 43 | 1003.2 |
| 20260504015512 | 55 | 0 | 0.0 | 0.0 | 0.00 | 0.00 | 0.00 | 43 | 1003.2 |
| 20260504015012 | 56 | 0 | 0.0 | 0.0 | 0.00 | 0.00 | 0.00 | 45 | 1003.1 |
| 20260504014538 | 56 | 0 | 0.0 | 0.0 | 0.00 | 0.00 | 0.00 | 48 | 1003.2 |
| 20260504014009 | 57 | 0 | 0.0 | 0.0 | 0.00 | 0.00 | 0.00 | 44 | 1003.1 |
| 20260504013511 | 57 | 0 | 0.0 | 0.0 | 0.00 | 0.00 | 0.00 | 47 | 1003.1 |
| 20260504013033 | 58 | 0 | 0.0 | 0.0 | 0.00 | 0.00 | 0.00 | 41 | 1003.3 |
| 20260504012509 | 58 | 0 | 0.0 | 0.0 | 0.00 | 0.00 | 0.00 | 37 | 1003.2 |
| 20260504012010 | 59 | 0 | 0.0 | 1.0 | 0.00 | 0.00 | 0.00 | 36 | 1003.3 |
| 20260504011530 | 59 | 0 | 0.0 | 1.0 | 0.00 | 0.00 | 0.00 | 37 | 1003.3 |
| 20260504011012 | 59 | 0 | 0.0 | 2.0 | 0.00 | 0.00 | 0.00 | 38 | 1003.4 |
| 20260504010510 | 60 | 0 | 0.0 | 3.0 | 0.00 | 0.00 | 0.00 | 36 | 1003.3 |
| 20260504010030 | 60 | 269 | 0.0 | 3.0 | 0.00 | 0.00 | 0.00 | 35 | 1003.5 |
| 20260504005511 | 60 | 269 | 1.0 | 3.0 | 0.00 | 0.00 | 0.00 | 35 | 1003.3 |
| 20260504005018 | 61 | 269 | 1.0 | 3.0 | 0.00 | 0.00 | 0.00 | 35 | 1003.4 |
| 20260504004530 | 61 | 269 | 1.0 | 3.0 | 0.00 | 0.00 | 0.00 | 35 | 1003.4 |
| 20260504004014 | 61 | 269 | 1.0 | 4.0 | 0.00 | 0.00 | 0.00 | 34 | 1003.4 |
| 20260504003517 | 62 | 269 | 2.0 | 4.0 | 0.00 | 0.00 | 0.00 | 34 | 1003.4 |
| 20260504003035 | 62 | 284 | 2.0 | 4.0 | 0.00 | 0.00 | 0.00 | 33 | 1003.3 |
| 20260504002511 | 62 | 259 | 1.0 | 4.0 | 0.00 | 0.00 | 0.00 | 32 | 1003.3 |
| 20260504002016 | 62 | 268 | 1.0 | 6.0 | 0.00 | 0.00 | 0.00 | 33 | 1003.3 |
| 20260504001537 | 62 | 268 | 2.0 | 8.0 | 0.00 | 0.00 | 0.00 | 32 | 1003.3 |
| 20260504001010 | 63 | 275 | 3.0 | 8.0 | 0.00 | 0.00 | 0.00 | 32 | 1003.4 |
| 20260504000511 | 63 | 288 | 3.0 | 8.0 | 0.00 | 0.00 | 0.00 | 32 | 1003.4 |
| 20260504000032 | 63 | 267 | 1.0 | 9.0 | 0.00 | 0.00 | 0.00 | 34 | 1003.5 |
| 20260503235512 | 63 | 256 | 4.0 | 10.0 | 0.00 | 0.00 | 0.00 | 31 | 1003.5 |
| 20260503235011 | 63 | 222 | 5.0 | 10.0 | 0.00 | 0.00 | 0.00 | 30 | 1003.4 |
| 20260503234532 | 63 | 216 | 3.0 | 11.0 | 0.00 | 0.00 | 0.00 | 30 | 1003.5 |
| 20260503234012 | 64 | 261 | 5.0 | 11.0 | 0.00 | 0.00 | 0.00 | 31 | 1003.6 |
| 20260503233511 | 64 | 266 | 3.0 | 9.0 | 0.00 | 0.00 | 0.00 | 33 | 1003.5 |
| 20260503233030 | 64 | 271 | 3.0 | 12.0 | 0.00 | 0.00 | 0.00 | 32 | 1003.6 |
| 20260503232514 | 65 | 294 | 5.0 | 12.0 | 0.00 | 0.00 | 0.00 | 31 | 1003.5 |
| 20260503232014 | 64 | 217 | 2.0 | 9.0 | 0.00 | 0.00 | 0.00 | 31 | 1003.6 |
| 20260503231530 | 64 | 300 | 4.0 | 8.0 | 0.00 | 0.00 | 0.00 | 29 | 1003.6 |
| 20260503231013 | 65 | 261 | 3.0 | 9.0 | 0.00 | 0.00 | 0.00 | 31 | 1003.7 |
| 20260503230511 | 65 | 273 | 3.0 | 11.0 | 0.00 | 0.00 | 0.00 | 29 | 1003.7 |
| 20260503230034 | 65 | 273 | 6.0 | 11.0 | 0.00 | 0.00 | 0.00 | 28 | 1003.7 |
| 20260503225513 | 65 | 0 | 2.0 | 9.0 | 0.00 | 0.00 | 0.00 | 29 | 1003.6 |
| 20260503225014 | 65 | 318 | 2.0 | 9.0 | 0.00 | 0.00 | 0.00 | 30 | 1003.7 |
| 20260503224533 | 65 | 300 | 2.0 | 9.0 | 0.00 | 0.00 | 0.00 | 29 | 1003.6 |
| 20260503224012 | 65 | 277 | 1.0 | 7.0 | 0.00 | 0.00 | 0.00 | 28 | 1003.7 |
| 20260503223514 | 65 | 284 | 3.0 | 10.0 | 0.00 | 0.00 | 0.00 | 28 | 1003.7 |
| 20260503223033 | 65 | 324 | 3.0 | 12.0 | 0.00 | 0.00 | 0.00 | 27 | 1003.7 |
| 20260503222509 | 65 | 254 | 5.0 | 12.0 | 0.00 | 0.00 | 0.00 | 26 | 1003.7 |
| 20260503222015 | 65 | 268 | 5.0 | 12.0 | 0.00 | 0.00 | 0.00 | 26 | 1003.7 |
| 20260503221533 | 65 | 261 | 3.0 | 10.0 | 0.00 | 0.00 | 0.00 | 27 | 1003.6 |
| 20260503221009 | 65 | 281 | 3.0 | 9.0 | 0.00 | 0.00 | 0.00 | 31 | 1003.7 |
| 20260503220512 | 65 | 324 | 2.0 | 9.0 | 0.00 | 0.00 | 0.00 | 28 | 1003.7 |
| 20260503220032 | 65 | 286 | 3.0 | 8.0 | 0.00 | 0.00 | 0.00 | 27 | 1003.8 |
| 20260503215511 | 65 | 327 | 2.0 | 9.0 | 0.00 | 0.00 | 0.00 | 27 | 1003.7 |
| 20260503215012 | 65 | 0 | 2.0 | 10.0 | 0.00 | 0.00 | 0.00 | 26 | 1003.7 |
| 20260503214531 | 65 | 290 | 4.0 | 10.0 | 0.00 | 0.00 | 0.00 | 25 | 1003.7 |
| 20260503214012 | 65 | 265 | 6.0 | 10.0 | 0.00 | 0.00 | 0.00 | 25 | 1003.7 |
| 20260503213513 | 65 | 262 | 5.0 | 11.0 | 0.00 | 0.00 | 0.00 | 25 | 1003.8 |
| 20260503213033 | 65 | 330 | 4.0 | 11.0 | 0.00 | 0.00 | 0.00 | 27 | 1003.9 |
| 20260503212512 | 66 | 288 | 4.0 | 12.0 | 0.00 | 0.00 | 0.00 | 27 | 1003.7 |
| 20260503212013 | 66 | 216 | 6.0 | 12.0 | 0.00 | 0.00 | 0.00 | 24 | 1003.6 |
| 20260503211532 | 67 | 289 | 4.0 | 11.0 | 0.00 | 0.00 | 0.00 | 26 | 1003.8 |
| 20260503211010 | 66 | 315 | 2.0 | 10.0 | 0.00 | 0.00 | 0.00 | 27 | 1003.8 |
| 20260503210510 | 67 | 317 | 3.0 | 10.0 | 0.00 | 0.00 | 0.00 | 27 | 1003.7 |
| 20260503210033 | 67 | 272 | 3.0 | 11.0 | 0.00 | 0.00 | 0.00 | 25 | 1003.7 |
| 20260503205510 | 66 | 250 | 2.0 | 11.0 | 0.00 | 0.00 | 0.00 | 31 | 1003.6 |
| 20260503205012 | 66 | 313 | 3.0 | 12.0 | 0.00 | 0.00 | 0.00 | 27 | 1003.7 |
| 20260503204529 | 66 | 297 | 4.0 | 12.0 | 0.00 | 0.00 | 0.00 | 27 | 1003.7 |
| 20260503204017 | 66 | 280 | 2.0 | 11.0 | 0.00 | 0.00 | 0.00 | 27 | 1003.8 |
| 20260503203513 | 67 | 243 | 4.0 | 11.0 | 0.00 | 0.00 | 0.00 | 28 | 1003.8 |
| 20260503203032 | 66 | 254 | 4.0 | 12.0 | 0.00 | 0.00 | 0.00 | 26 | 1003.7 |
| 20260503202509 | 66 | 258 | 5.0 | 12.0 | 0.00 | 0.00 | 0.00 | 28 | 1003.9 |
| 20260503202011 | 66 | 305 | 4.0 | 12.0 | 0.00 | 0.00 | 0.00 | 31 | 1003.9 |
| 20260503201528 | 67 | 278 | 3.0 | 11.0 | 0.00 | 0.00 | 0.00 | 30 | 1003.9 |
| 20260503201011 | 67 | 263 | 2.0 | 11.0 | 0.00 | 0.00 | 0.00 | 32 | 1004.0 |
| 20260503200514 | 67 | 296 | 4.0 | 11.0 | 0.00 | 0.00 | 0.00 | 29 | 1004.0 |
| 20260503200028 | 67 | 265 | 4.0 | 9.0 | 0.00 | 0.00 | 0.00 | 33 | 1003.8 |
| 20260503195509 | 67 | 240 | 2.0 | 10.0 | 0.00 | 0.00 | 0.00 | 32 | 1003.9 |
| 20260503195014 | 68 | 238 | 5.0 | 10.0 | 0.00 | 0.00 | 0.00 | 32 | 1004.0 |
| 20260503194533 | 68 | 233 | 2.0 | 12.0 | 0.00 | 0.00 | 0.00 | 33 | 1004.0 |
| 20260503194009 | 68 | 267 | 2.0 | 12.0 | 0.00 | 0.00 | 0.00 | 33 | 1004.0 |
| 20260503193511 | 67 | 296 | 3.0 | 14.0 | 0.00 | 0.00 | 0.00 | 35 | 1004.0 |
| 20260503193029 | 68 | 295 | 3.0 | 14.0 | 0.00 | 0.00 | 0.00 | 32 | 1004.1 |
| 20260503192509 | 68 | 280 | 4.0 | 14.0 | 0.00 | 0.00 | 0.00 | 32 | 1004.2 |
| 20260503192010 | 67 | 245 | 2.0 | 14.0 | 0.00 | 0.00 | 0.00 | 34 | 1004.1 |
| 20260503191536 | 68 | 220 | 6.0 | 14.0 | 0.00 | 0.00 | 0.00 | 30 | 1004.1 |
| 20260503191007 | 68 | 265 | 4.0 | 14.0 | 0.00 | 0.00 | 0.00 | 34 | 1004.2 |
| 20260503190511 | 68 | 288 | 4.0 | 14.0 | 0.00 | 0.00 | 0.00 | 33 | 1004.2 |
| 20260503190028 | 67 | 281 | 4.0 | 11.0 | 0.00 | 0.00 | 0.00 | 36 | 1004.3 |
| 20260503185510 | 67 | 305 | 1.0 | 10.0 | 0.00 | 0.00 | 0.00 | 36 | 1004.3 |
| 20260503185011 | 68 | 263 | 4.0 | 10.0 | 0.00 | 0.00 | 0.00 | 36 | 1004.4 |
| 20260503184530 | 68 | 294 | 4.0 | 10.0 | 0.00 | 0.00 | 0.00 | 38 | 1004.4 |
| 20260503184010 | 67 | 262 | 4.0 | 10.0 | 0.00 | 0.00 | 0.00 | 36 | 1004.3 |
| 20260503183514 | 67 | 313 | 2.0 | 13.0 | 0.00 | 0.00 | 0.00 | 37 | 1004.4 |
| 20260503183029 | 67 | 236 | 2.0 | 14.0 | 0.00 | 0.00 | 0.00 | 41 | 1004.5 |
| 20260503182507 | 67 | 268 | 5.0 | 14.0 | 0.00 | 0.00 | 0.00 | 37 | 1004.3 |
| 20260503182013 | 67 | 265 | 3.0 | 14.0 | 0.00 | 0.00 | 0.00 | 39 | 1004.4 |
| 20260503181529 | 67 | 300 | 2.0 | 12.0 | 0.00 | 0.00 | 0.00 | 42 | 1004.6 |
| 20260503181012 | 67 | 270 | 4.0 | 12.0 | 0.00 | 0.00 | 0.00 | 38 | 1004.6 |
| 20260503180515 | 66 | 274 | 2.0 | 11.0 | 0.00 | 0.00 | 0.00 | 41 | 1004.6 |
| 20260503180043 | 67 | 279 | 5.0 | 11.0 | 0.00 | 0.00 | 0.00 | 40 | 1004.8 |
| 20260503175510 | 67 | 274 | 2.0 | 11.0 | 0.00 | 0.00 | 0.00 | 43 | 1004.8 |
| 20260503175013 | 66 | 275 | 4.0 | 11.0 | 0.00 | 0.00 | 0.00 | 41 | 1004.9 |
| 20260503174532 | 66 | 299 | 3.0 | 11.0 | 0.00 | 0.00 | 0.00 | 40 | 1004.8 |
| 20260503174010 | 65 | 288 | 2.0 | 13.0 | 0.00 | 0.00 | 0.00 | 42 | 1005.0 |
| 20260503173512 | 65 | 321 | 2.0 | 13.0 | 0.00 | 0.00 | 0.00 | 42 | 1005.1 |
| 20260503173030 | 65 | 290 | 3.0 | 9.0 | 0.00 | 0.00 | 0.00 | 44 | 1004.9 |
| 20260503172512 | 65 | 272 | 4.0 | 9.0 | 0.00 | 0.00 | 0.00 | 43 | 1005.1 |
| 20260503172011 | 64 | 276 | 2.0 | 8.0 | 0.00 | 0.00 | 0.00 | 44 | 1005.1 |
| 20260503171530 | 65 | 296 | 3.0 | 10.0 | 0.00 | 0.00 | 0.00 | 45 | 1005.1 |
| 20260503171012 | 64 | 300 | 3.0 | 11.0 | 0.00 | 0.00 | 0.00 | 47 | 1005.1 |
| 20260503170512 | 65 | 303 | 2.0 | 11.0 | 0.00 | 0.00 | 0.00 | 44 | 1005.1 |
| 20260503151009 | 62 | 258 | 2.0 | 8.0 | 0.00 | 0.00 | 0.00 | 52 | 1005.2 |
| 20260503150511 | 61 | 250 | 2.0 | 6.0 | 0.00 | 0.00 | 0.00 | 52 | 1005.1 |